Location: Unspecified
(0.0000°N, 0.0000°E)
Time: 02:37:02
(UTC+00:00)

Envisat - Pass Details

Date: 28 February 2021
Orbit: 764 x 766 km, 98.1° (Epoch: 24 February)

Event Time Altitude Azimuth Distance (km) Brightness Sun altitude
Rises 05:22:11 0° 8° (N) 3,213 6.2 -12.5°
Reaches altitude 10° 05:24:29 10° 7° (N) 2,291 5.5 -11.9°
Maximum altitude 05:29:31 74° 282° (WNW) 795 2.9 -10.7°
Drops below altitude 10° 05:34:34 10° 197° (SSW) 2,301 5.4 -9.4°
Sets 05:36:53 0° 195° (SSW) 3,230 6.2 -8.8°
